Weather History for K2D5 - December, 2012

Change the Weather History Date:

Sunday, December 23, 2012

  Actual Average (KABR) Record (KABR)
Temperature  
Mean Temperature 4 °F 14 °F  
Max Temperature 6 °F 24 °F 54 °F (1893)
Min Temperature 1 °F 4 °F -34 °F (1983)
Degree Days  
Heating Degree Days 62 51  
Month to date heating degree days 1112  
Since 1 July heating degree days 3075  
Cooling Degree Days 0 0  
Month to date cooling degree days 0  
Year to date cooling degree days 525  
Moisture  
Dew Point 1 °F    
Average Humidity 87    
Maximum Humidity 100    
Minimum Humidity 79    
Precipitation  
Precipitation 0.34 in 0.02 in 0.36 in (2010)
Month to date precipitation 0.38  
Year to date precipitation 21.58  
Snow  
Snow 0.00 in - - ()
Month to date snowfall  
Since 1 July snowfall  
Snow Depth -    
Sea Level Pressure  
Sea Level Pressure 30.11 in    
Wind  
Wind Speed 13 mph (NNE)    
Max Wind Speed 21 mph    
Max Gust Speed 24 mph    
Visibility 9 miles    
Events Rain , Snow    
T = Trace of Precipitation, MM = Missing Value Source: NWS Daily Summary

Daily Weather History Graph

Daily Weather History Graph

Search for Another Location

Airport or City:

Trip Planner

Search our weather history database for the weather conditions in past years. The results will help you decide how hot, cold, wet, or windy it might be!

Date:

Astronomy

Dec. 23, 2012 Rise Set
Actual Time 8:13 AM CST 4:50 PM CST
Civil Twilight 7:38 AM CST 5:25 PM CST
Nautical Twilight 7:00 AM CST 6:03 PM CST
Astronomical Twilight 6:23 AM CST 6:39 PM CST
Moon 1:48 PM CST (12/23) 3:49 AM CST (12/23)
Length of Visible Light 9h 46m
Length of Day
8h 37m
Waxing Gibbous, 82% of the Moon is Illuminated
Dec 23
Waxing Gibbous
Dec 28
Full
Jan 4
Last Quarter
Jan 11
New
Jan 18
First Quarter

Hourly Weather History & Observations

Time (CST) Temp. Windchill Dew Point Humidity Pressure Visibility Wind Dir Wind Speed Gust Speed Precip Events Conditions
12:15 AM 6.8 °F -8.6 °F 5.0 °F 92% 30.15 in 10.0 mi NNE 11.5 mph - N/A Snow Light Snow
12:35 AM 6.8 °F -8.6 °F 5.0 °F 92% 30.16 in 10.0 mi NNE 11.5 mph - N/A Snow Light Snow
12:55 AM 6.8 °F -10.7 °F 5.0 °F 92% 30.15 in 10.0 mi North 15.0 mph - N/A Snow Light Snow
1:15 AM 6.8 °F -10.7 °F 5.0 °F 92% 30.16 in 10.0 mi NNE 15.0 mph - N/A Rain Light Freezing Rain
1:35 AM 6.8 °F -10.7 °F 5.0 °F 92% 30.15 in 10.0 mi NNE 15.0 mph - N/A Rain Light Freezing Rain
1:55 AM 6.8 °F -12.9 °F 5.0 °F 92% 30.14 in 10.0 mi NNE 19.6 mph - N/A Rain Light Freezing Rain
2:15 AM 5.0 °F -13.0 °F 5.0 °F 100% 30.14 in 10.0 mi NNE 15.0 mph - N/A Rain Light Freezing Rain
2:35 AM 5.0 °F -12.3 °F 3.2 °F 92% 30.14 in 10.0 mi NNE 13.8 mph - N/A Rain Light Freezing Rain
2:55 AM 5.0 °F -11.6 °F 1.4 °F 85% 30.15 in 10.0 mi NNE 12.7 mph - N/A   Scattered Clouds
3:15 AM 5.0 °F -11.6 °F 1.4 °F 85% 30.15 in 10.0 mi NNE 12.7 mph - N/A   Unknown
3:35 AM 5.0 °F -10.0 °F 1.4 °F 85% 30.14 in 10.0 mi NNE 10.4 mph - N/A   Unknown
3:55 AM 5.0 °F -12.3 °F 1.4 °F 85% 30.15 in 10.0 mi NNE 13.8 mph - N/A   Unknown
4:15 AM 5.0 °F -10.0 °F 1.4 °F 85% 30.16 in 10.0 mi NNE 10.4 mph - N/A   Unknown
4:35 AM 5.0 °F -10.8 °F 1.4 °F 85% 30.15 in 10.0 mi NNE 11.5 mph - N/A   Partly Cloudy
4:55 AM 5.0 °F -9.1 °F 1.4 °F 85% 30.15 in 10.0 mi NNE 9.2 mph - N/A   Unknown
5:15 AM 3.2 °F -13.1 °F 1.4 °F 92% 30.15 in 10.0 mi NNE 11.5 mph - N/A   Unknown
5:35 AM 3.2 °F -13.1 °F -0.4 °F 85% 30.15 in 10.0 mi NNE 11.5 mph - N/A   Unknown
5:55 AM 3.2 °F -14.6 °F -0.4 °F 85% 30.14 in 10.0 mi NNE 13.8 mph - N/A   Unknown
6:15 AM 3.2 °F -13.1 °F -0.4 °F 85% 30.13 in 10.0 mi NNE 11.5 mph - N/A   Clear
6:35 AM 3.2 °F -12.2 °F -0.4 °F 85% 30.14 in 10.0 mi NNE 10.4 mph - N/A   Clear
6:55 AM 1.4 °F -14.5 °F -0.4 °F 92% 30.14 in 10.0 mi NNE 10.4 mph - N/A   Unknown
7:15 AM 1.4 °F -16.1 °F -0.4 °F 92% 30.13 in 10.0 mi NNE 12.7 mph - N/A   Unknown
7:35 AM 1.4 °F -16.9 °F -0.4 °F 92% 30.11 in 10.0 mi NE 13.8 mph - N/A   Unknown
7:55 AM 1.4 °F -16.9 °F -0.4 °F 92% 30.10 in 10.0 mi NE 13.8 mph - N/A   Clear
8:15 AM 1.4 °F -17.6 °F -0.4 °F 92% 30.10 in 10.0 mi NE 15.0 mph - N/A   Unknown
8:35 AM 1.4 °F -15.3 °F -0.4 °F 92% 30.10 in 10.0 mi NNE 11.5 mph - N/A   Unknown
8:55 AM 1.4 °F -16.9 °F -0.4 °F 92% 30.10 in 10.0 mi NE 13.8 mph - N/A   Unknown
9:15 AM 1.4 °F -16.9 °F -0.4 °F 92% 30.10 in 10.0 mi NE 13.8 mph - N/A   Unknown
9:35 AM 1.4 °F -16.1 °F -0.4 °F 92% 30.11 in 10.0 mi NE 12.7 mph - N/A   Clear
9:55 AM 1.4 °F -14.5 °F -0.4 °F 92% 30.11 in 10.0 mi NNE 10.4 mph - N/A   Unknown
10:15 AM 3.2 °F -15.3 °F -0.4 °F 85% 30.11 in 10.0 mi NE 15.0 mph - N/A   Unknown
10:35 AM 5.0 °F -10.8 °F 1.4 °F 85% 30.13 in 10.0 mi NNE 11.5 mph - N/A   Unknown
10:55 AM 5.0 °F -11.6 °F 1.4 °F 85% 30.11 in 10.0 mi NNE 12.7 mph - N/A   Unknown
11:15 AM 5.0 °F -14.2 °F 1.4 °F 85% 30.09 in 10.0 mi NNE 17.3 mph - N/A   Clear
11:35 AM 5.0 °F -12.3 °F 1.4 °F 85% 30.11 in 10.0 mi NNE 13.8 mph - N/A   Unknown
11:55 AM 5.0 °F -10.0 °F 1.4 °F 85% 30.11 in 10.0 mi NNE 10.4 mph - N/A   Unknown
12:15 PM 5.0 °F -13.0 °F 1.4 °F 85% 30.10 in 10.0 mi NNE 15.0 mph - N/A   Unknown
12:35 PM 5.0 °F -11.6 °F 1.4 °F 85% 30.10 in 10.0 mi NNE 12.7 mph - N/A   Unknown
12:55 PM 5.0 °F -11.6 °F 1.4 °F 85% 30.10 in 10.0 mi North 12.7 mph - N/A   Clear
1:15 PM 5.0 °F -11.6 °F 1.4 °F 85% 30.10 in 10.0 mi NNE 12.7 mph - N/A   Clear
1:35 PM 6.8 °F -10.0 °F 1.4 °F 79% 30.09 in 10.0 mi NNE 13.8 mph - N/A   Unknown
1:55 PM 6.8 °F -10.0 °F 3.2 °F 85% 30.10 in 10.0 mi North 13.8 mph - N/A   Unknown
2:15 PM 6.8 °F -8.6 °F 3.2 °F 85% 30.11 in 10.0 mi North 11.5 mph - N/A   Unknown
2:35 PM 6.8 °F -10.0 °F 3.2 °F 85% 30.09 in 10.0 mi NNE 13.8 mph - N/A   Unknown
2:55 PM 6.8 °F -10.0 °F 3.2 °F 85% 30.09 in 10.0 mi NNE 13.8 mph - N/A   Mostly Cloudy
3:15 PM 6.8 °F -10.0 °F 3.2 °F 85% 30.09 in 10.0 mi NE 13.8 mph - N/A   Unknown
3:35 PM 6.8 °F -10.7 °F 3.2 °F 85% 30.09 in 10.0 mi NE 15.0 mph - N/A   Unknown
3:55 PM 5.0 °F -13.0 °F 1.4 °F 85% 30.10 in 10.0 mi NE 15.0 mph - N/A   Unknown
4:15 PM 5.0 °F -13.0 °F 1.4 °F 85% 30.10 in 10.0 mi NNE 15.0 mph 18.4 mph N/A   Unknown
4:35 PM 5.0 °F -11.6 °F 1.4 °F 85% 30.10 in 10.0 mi NNE 12.7 mph - N/A   Overcast
4:55 PM 5.0 °F -12.3 °F 1.4 °F 85% 30.10 in 10.0 mi NNE 13.8 mph - N/A   Unknown
5:15 PM 5.0 °F -14.2 °F 1.4 °F 85% 30.09 in 10.0 mi NNE 17.3 mph - N/A   Unknown
5:35 PM 5.0 °F -15.2 °F 1.4 °F 85% 30.08 in 10.0 mi NNE 19.6 mph 23.0 mph N/A   Unknown
5:55 PM 5.0 °F -14.2 °F 1.4 °F 85% 30.08 in 10.0 mi NNE 17.3 mph - N/A   Unknown
6:15 PM 5.0 °F -15.7 °F 1.4 °F 85% 30.06 in 10.0 mi NE 20.7 mph 24.2 mph N/A   Overcast
6:35 PM 3.2 °F -15.9 °F 1.4 °F 92% 30.06 in 10.0 mi NNE 16.1 mph - N/A   Unknown
6:55 PM 5.0 °F -14.7 °F 1.4 °F 85% 30.07 in 10.0 mi NNE 18.4 mph - N/A   Unknown
7:15 PM 3.2 °F -15.9 °F 1.4 °F 92% 30.07 in 10.0 mi NNE 16.1 mph - N/A   Unknown
7:35 PM 3.2 °F -14.6 °F 1.4 °F 92% 30.08 in 10.0 mi NNE 13.8 mph - N/A   Unknown
7:55 PM 3.2 °F -13.1 °F -0.4 °F 85% 30.09 in 10.0 mi NNE 11.5 mph - N/A   Scattered Clouds
8:15 PM 3.2 °F -13.9 °F -0.4 °F 85% 30.09 in 10.0 mi NNE 12.7 mph - N/A   Unknown
8:55 PM 3.2 °F -12.2 °F -0.4 °F 85% 30.09 in 10.0 mi NNE 10.4 mph - N/A Snow Light Snow
9:15 PM 3.2 °F -13.9 °F -0.4 °F 85% 30.09 in 3.0 mi NNE 12.7 mph - N/A Snow Light Snow
9:35 PM 3.2 °F -13.9 °F 1.4 °F 92% 30.09 in 3.0 mi North 12.7 mph - 0.02 in Snow Light Snow
9:55 PM 3.2 °F -13.9 °F -0.4 °F 85% 30.08 in 3.0 mi NNE 12.7 mph - 0.04 in Snow Light Snow
10:15 PM 3.2 °F -14.6 °F -0.4 °F 85% 30.09 in 2.0 mi North 13.8 mph - 0.03 in Snow Light Snow
10:35 PM 3.2 °F -13.1 °F -0.4 °F 85% 30.10 in 1.8 mi North 11.5 mph - 0.12 in Snow Light Snow
10:55 PM 3.2 °F -13.9 °F -0.4 °F 85% 30.09 in 1.8 mi North 12.7 mph - 0.21 in Snow Light Snow
11:15 PM 3.2 °F -13.9 °F -0.4 °F 85% 30.09 in 3.0 mi North 12.7 mph - 0.02 in Snow Light Snow
11:35 PM 3.2 °F -13.9 °F -0.4 °F 85% 30.10 in 3.0 mi North 12.7 mph - 0.05 in Snow Light Snow
11:55 PM 3.2 °F -13.1 °F -0.4 °F 85% 30.11 in 3.0 mi North 11.5 mph - 0.09 in Snow Light Snow